Flag for United Kingdom Weather past 2 weeks in Gloucester, England, United Kingdom

54 °F

Light rain. Partly sunny.

Feels Like: 48 °F
Forecast: 44 / 56 °F
Wind: 20 mph from Southwest

Location: Staverton Private

Current Time: Nov 30, 2015 at 11:45:45 AM

Latest Report: Nov 30, 2015 at 11:20 AM

Visibility: N/A

Pressure: 29.89 "Hg

Humidity: 82%

Dew point: 48 °F

Location of GloucesterLocation

Historic Weather in Gloucester — Graph


Gloucester temperature yesterday

Maximum temperature yesterday: 55 °F (at 10:50 AM)
Minimum temperature yesterday: 50 °F (at 6:50 PM)
Average temperature yesterday: 54 °F

Past Weeks' High & Low Weather Summary

High61 °F (Nov 15, 12:50 PM)100% (Nov 17, 6:50 AM)30.30 "Hg (Nov 17, 6:50 AM)
Low30 °F (Nov 23, 7:20 AM)45% (Nov 21, 2:20 PM)29.45 "Hg (Nov 17, 1:20 PM)
Average49 °F83%29.86 "Hg
* Reported Nov 15 10:20 AM — Nov 30 10:20 AM, Gloucester, Weather by CustomWeather, © 2015

Note: Actual official high and low records may vary slightly from our data, if they occured in-between our weather recording intervals... More about our weather records


Gloucester weather history for previous 24 hours

Time TempWeatherWind HumidityBarometerVisibility
10:20 AM
Mon, Nov 30
54 °FLight rain. Broken clouds.20 mph88%29.92 "HgN/A
9:50 AM54 °FSprinkles. Broken clouds.20 mph88%29.92 "Hg6 mi
9:20 AM52 °FSprinkles. Broken clouds.16 mph94%29.92 "Hg6 mi
8:50 AM54 °FSprinkles. Broken clouds.18 mph88%29.92 "Hg6 mi
8:20 AM54 °FSprinkles. Broken clouds.16 mph88%29.95 "Hg6 mi
7:20 AM52 °FPartly cloudy.15 mph94%29.92 "Hg6 mi
6:50 AM50 °FPartly cloudy.12 mph94%29.95 "Hg4 mi
6:50 PM
Sun, Nov 29
50 °FSprinkles. Passing clouds.20 mph82%29.86 "HgN/A
6:20 PM52 °FSprinkles. Passing clouds.13 mph88%29.83 "HgN/A
5:50 PM52 °FRain showers. Passing clouds.9 mph88%29.80 "HgN/A
5:20 PM54 °FScattered showers. Passing clouds.16 mph82%29.77 "HgN/A
4:50 PM54 °FSprinkles. Passing clouds.15 mph82%29.74 "HgN/A
4:20 PM54 °FSprinkles. Passing clouds.15 mph88%29.74 "HgN/A
3:20 PM54 °FLight rain. Broken clouds.17 mph88%29.71 "Hg4 mi
2:50 PM54 °FLight rain. Broken clouds.16 mph88%29.71 "Hg5 mi
2:20 PM54 °FLight rain. Broken clouds.15 mph88%29.71 "Hg4 mi
1:50 PM54 °FDrizzle. Partly sunny.15 mph88%29.68 "Hg5 mi
1:20 PM54 °FDrizzle. Partly sunny.16 mph88%29.68 "Hg6 mi
12:50 PM54 °FSprinkles. Scattered clouds.20 mph88%29.68 "Hg6 mi
12:20 PM54 °FSprinkles. Scattered clouds.18 mph82%29.68 "HgN/A
11:50 AM55 °FScattered showers. Scattered clouds.23 mph72%29.68 "HgN/A
11:20 AM55 °FScattered showers. Scattered clouds.22 mph67%29.68 "HgN/A
Weather by CustomWeather, © 2015

See weather overviewHow to use our weather pages